• In Germany
  • List of Countries
  • For 7 days
  • Water Temperature
  • Satellite Maps
  • Weather Map
  • Weather Widgets
  • user-avatar
    Login

    Hourly Weather Townsville

    Today, 20 September, Wednesday

    Time Temperature Precipitation Wind Pressure Humidity
    00:00 +22°C° 0.5 mm 3 mps 757 mmHg 97%
    01:00 +22°C° 0.5 mm 3 mps 756 mmHg 97%
    02:00 +21°C° 0.1 mm 2 mps 756 mmHg 97%
    03:00 +21°C° 0.1 mm 2 mps 756 mmHg 97%
    04:00 +22°C° 0 mm 1 mps 756 mmHg 95%
    05:00 +22°C° 0 mm 1 mps 756 mmHg 94%
    06:00 +22°C° 0 mm 1 mps 756 mmHg 92%
    07:00 +22°C° 0 mm 1 mps 756 mmHg 91%
    08:00 +25°C° 0 mm 1 mps 756 mmHg 78%
    09:00 +27°C° 0 mm 1 mps 756 mmHg 66%
    10:00 +31°C° 0 mm 1 mps 756 mmHg 52%
    11:00 +32°C° 0 mm 2 mps 756 mmHg 46%
    12:00 +34°C° 0 mm 2 mps 755 mmHg 40%
    13:00 +34°C° 0 mm 3 mps 754 mmHg 34%
    14:00 +34°C° 0 mm 3 mps 754 mmHg 38%
    15:00 +33°C° 0 mm 4 mps 754 mmHg 43%
    16:00 +32°C° 0 mm 4 mps 753 mmHg 48%
    17:00 +29°C° 0 mm 3 mps 753 mmHg 61%
    18:00 +26°C° 0 mm 3 mps 754 mmHg 75%
    19:00 +24°C° 0 mm 3 mps 754 mmHg 88%
    20:00 +24°C° 0 mm 3 mps 754 mmHg 90%
    21:00 +24°C° 0 mm 2 mps 755 mmHg 91%
    22:00 +24°C° 0 mm 2 mps 755 mmHg 93%
    23:00 +23°C° 0 mm 2 mps 755 mmHg 93%

    Tomorrow, 21 September, Thursday

    Time Temperature Precipitation Wind Pressure Humidity
    00:00 +23°C° 0 mm 2 mps 755 mmHg 93%
    01:00 +23°C° 0 mm 2 mps 755 mmHg 94%
    02:00 +21°C° 0 mm 2 mps 755 mmHg 95%
    03:00 +21°C° 0 mm 2 mps 755 mmHg 96%
    04:00 +21°C° 0 mm 1 mps 755 mmHg 97%
    05:00 +22°C° 0 mm 1 mps 755 mmHg 95%
    06:00 +22°C° 0 mm 1 mps 755 mmHg 93%
    07:00 +22°C° 0 mm 1 mps 755 mmHg 90%
    08:00 +25°C° 0 mm 1 mps 755 mmHg 75%
    09:00 +27°C° 0 mm 2 mps 756 mmHg 59%
    10:00 +30°C° 0 mm 2 mps 756 mmHg 44%
    11:00 +31°C° 0 mm 2 mps 755 mmHg 41%
    12:00 +32°C° 0 mm 2 mps 755 mmHg 37%
    13:00 +34°C° 0 mm 3 mps 754 mmHg 34%
    14:00 +33°C° 0 mm 3 mps 754 mmHg 36%
    15:00 +31°C° 0 mm 3 mps 753 mmHg 39%
    16:00 +30°C° 0 mm 3 mps 753 mmHg 42%
    17:00 +28°C° 0 mm 3 mps 753 mmHg 55%
    18:00 +26°C° 0 mm 2 mps 754 mmHg 67%
    19:00 +24°C° 0 mm 2 mps 754 mmHg 80%
    20:00 +23°C° 0 mm 2 mps 755 mmHg 84%
    21:00 +22°C° 0 mm 3 mps 755 mmHg 87%
    22:00 +22°C° 0 mm 3 mps 755 mmHg 91%
    23:00 +22°C° 0 mm 3 mps 755 mmHg 91%

    Day after tomorrow, 22 September, Friday

    Time Temperature Precipitation Wind Pressure Humidity
    00:00 +22°C° 0 mm 3 mps 755 mmHg 91%
    01:00 +22°C° 0 mm 4 mps 755 mmHg 91%
    02:00 +22°C° 0 mm 3 mps 755 mmHg 91%
    03:00 +22°C° 0 mm 3 mps 755 mmHg 91%
    04:00 +23°C° 0 mm 2 mps 755 mmHg 92%
    05:00 +23°C° 0.1 mm 2 mps 755 mmHg 92%
    06:00 +23°C° 0.1 mm 2 mps 756 mmHg 91%
    07:00 +24°C° 0.1 mm 2 mps 756 mmHg 91%
    08:00 +25°C° 0 mm 3 mps 756 mmHg 82%
    09:00 +27°C° 0 mm 3 mps 756 mmHg 72%
    10:00 +29°C° 0 mm 3 mps 756 mmHg 62%
    11:00 +30°C° 0 mm 3 mps 756 mmHg 58%
    12:00 +31°C° 0 mm 3 mps 755 mmHg 55%
    13:00 +33°C° 0 mm 4 mps 754 mmHg 51%
    14:00 +32°C° 0 mm 4 mps 754 mmHg 53%
    15:00 +32°C° 0 mm 4 mps 754 mmHg 56%
    16:00 +30°C° 0 mm 4 mps 753 mmHg 59%
    17:00 +28°C° 0 mm 4 mps 754 mmHg 68%
    18:00 +26°C° 0 mm 3 mps 754 mmHg 78%
    19:00 +24°C° 0 mm 3 mps 755 mmHg 88%
    20:00 +24°C° 0 mm 3 mps 755 mmHg 89%
    21:00 +24°C° 0 mm 3 mps 756 mmHg 90%
    22:00 +24°C° 0 mm 3 mps 756 mmHg 91%
    23:00 +24°C° 0 mm 3 mps 756 mmHg 92%

    23 September, Saturday

    Time Temperature Precipitation Wind Pressure Humidity
    00:00 +22°C° 0 mm 3 mps 755 mmHg 93%
    01:00 +22°C° 0 mm 3 mps 755 mmHg 93%
    02:00 +22°C° 0 mm 3 mps 755 mmHg 94%
    03:00 +23°C° 0 mm 2 mps 755 mmHg 95%
    04:00 +23°C° 0 mm 2 mps 755 mmHg 95%
    05:00 +23°C° 0 mm 2 mps 755 mmHg 93%
    06:00 +24°C° 0 mm 2 mps 756 mmHg 92%
    07:00 +24°C° 0 mm 2 mps 756 mmHg 90%
    08:00 +26°C° 0 mm 3 mps 756 mmHg 80%
    09:00 +27°C° 0 mm 3 mps 756 mmHg 71%
    10:00 +29°C° 0 mm 3 mps 756 mmHg 62%
    11:00 +30°C° 0 mm 3 mps 756 mmHg 57%
    12:00 +32°C° 0 mm 4 mps 755 mmHg 52%
    13:00 +33°C° 0 mm 4 mps 754 mmHg 47%
    14:00 +32°C° 0 mm 4 mps 754 mmHg 49%
    15:00 +30°C° 0 mm 4 mps 753 mmHg 52%
    16:00 +30°C° 0 mm 4 mps 753 mmHg 54%
    17:00 +28°C° 0 mm 3 mps 754 mmHg 65%
    18:00 +26°C° 0 mm 3 mps 754 mmHg 76%
    19:00 +24°C° 0 mm 2 mps 755 mmHg 88%
    20:00 +23°C° 0 mm 2 mps 755 mmHg 90%
    21:00 +23°C° 0 mm 2 mps 755 mmHg 92%
    22:00 +22°C° 0 mm 1 mps 756 mmHg 95%
    23:00 +22°C° 0 mm 1 mps 755 mmHg 95%

    24 September, Sunday

    Time Temperature Precipitation Wind Pressure Humidity
    00:00 +22°C° 0 mm 1 mps 755 mmHg 96%
    01:00 +21°C° 0 mm 1 mps 755 mmHg 96%
    02:00 +20°C° 0 mm 2 mps 754 mmHg 96%
    03:00 +20°C° 0 mm 2 mps 754 mmHg 96%
    04:00 +20°C° 0 mm 2 mps 754 mmHg 96%
    05:00 +21°C° 0 mm 2 mps 755 mmHg 94%
    06:00 +21°C° 0 mm 2 mps 755 mmHg 91%
    07:00 +21°C° 0 mm 2 mps 755 mmHg 89%
    08:00 +25°C° 0 mm 2 mps 755 mmHg 75%
    09:00 +27°C° 0 mm 3 mps 755 mmHg 61%
    10:00 +30°C° 0 mm 3 mps 756 mmHg 47%
    11:00 +30°C° 0 mm 3 mps 755 mmHg 42%
    12:00 +31°C° 0 mm 3 mps 754 mmHg 38%
    13:00 +33°C° 0 mm 4 mps 754 mmHg 33%
    14:00 +32°C° 0 mm 4 mps 753 mmHg 35%
    15:00 +30°C° 0 mm 3 mps 753 mmHg 37%
    16:00 +30°C° 0 mm 3 mps 753 mmHg 40%
    17:00 +27°C° 0 mm 3 mps 753 mmHg 52%
    18:00 +25°C° 0 mm 2 mps 753 mmHg 64%
    19:00 +23°C° 0 mm 2 mps 754 mmHg 76%
    20:00 +21°C° 0 mm 2 mps 754 mmHg 80%
    21:00 +21°C° 0 mm 2 mps 754 mmHg 84%
    22:00 +21°C° 0 mm 1 mps 755 mmHg 88%
    23:00 +21°C° 0 mm 1 mps 754 mmHg 89%

    25 September, Monday

    Time Temperature Precipitation Wind Pressure Humidity
    00:00 +21°C° 0 mm 1 mps 754 mmHg 91%
    01:00 +20°C° 0 mm 1 mps 754 mmHg 92%
    02:00 +20°C° 0 mm 1 mps 754 mmHg 93%
    03:00 +19°C° 0 mm 2 mps 754 mmHg 94%
    04:00 +19°C° 0 mm 2 mps 754 mmHg 94%
    05:00 +20°C° 0 mm 2 mps 754 mmHg 92%
    06:00 +21°C° 0 mm 2 mps 755 mmHg 89%
    07:00 +21°C° 0 mm 2 mps 755 mmHg 87%
    08:00 +24°C° 0 mm 3 mps 755 mmHg 75%
    09:00 +27°C° 0 mm 3 mps 755 mmHg 64%
    10:00 +29°C° 0 mm 3 mps 755 mmHg 52%
    11:00 +30°C° 0 mm 4 mps 755 mmHg 48%
    12:00 +32°C° 0 mm 4 mps 754 mmHg 44%
    13:00 +32°C° 0 mm 4 mps 753 mmHg 40%
    14:00 +32°C° 0 mm 4 mps 753 mmHg 42%
    15:00 +30°C° 0 mm 4 mps 753 mmHg 45%
    16:00 +29°C° 0 mm 4 mps 753 mmHg 47%
    17:00 +27°C° 0 mm 3 mps 753 mmHg 59%
    18:00 +25°C° 0 mm 3 mps 753 mmHg 71%
    19:00 +23°C° 0 mm 2 mps 754 mmHg 83%
    20:00 +21°C° 0 mm 2 mps 754 mmHg 86%
    21:00 +21°C° 0 mm 2 mps 754 mmHg 90%
    22:00 +20°C° 0 mm 2 mps 755 mmHg 93%
    23:00 +20°C° 0 mm 2 mps 754 mmHg 93%
    Show more